GFSNGP_500_spd_000.txt.gz
Wind_Speed
26 31 36 33 35 37 39 36 41 37 39 41 45 47 48 46 50 55 53 54 58 58 62 66 68 72 77 80 79 79 79 79 80 81 79 76 72 64 54 48 48 47 47 48
30 37 41 36 35 37 37 36 40 42 44 44 44 45 49 48 54 53 54 53 62 67 65 67 74 80 81 79 79 81 82 84 84 82 75 70 62 54 49 49 47 48 48 50
41 38 40 30 32 35 37 37 42 43 41 39 42 49 50 52 53 52 51 58 66 67 69 75 78 79 80 82 82 83 86 87 84 77 64 52 49 48 48 47 47 46 50 53
43 41 44 27 38 40 45 44 43 43 45 49 51 53 54 53 57 54 57 60 66 71 74 74 78 80 83 83 85 87 89 85 77 64 55 48 45 45 46 46 45 49 51 50
39 45 49 36 44 48 53 52 50 47 52 52 52 53 53 55 55 59 65 74 76 76 76 78 83 84 85 86 90 95 91 81 65 53 48 45 43 43 43 45 50 51 50 50
40 47 52 42 48 52 56 56 55 58 59 58 57 59 60 60 65 71 74 79 80 81 81 83 89 90 90 93 98 98 84 65 54 49 46 46 45 45 47 51 51 50 50 51
41 45 50 45 50 51 55 61 63 63 62 62 62 62 64 70 73 72 71 78 82 82 82 87 92 89 92 92 94 82 62 54 51 49 47 46 46 49 52 53 52 51 51 51
47 52 53 52 52 52 58 61 62 62 63 63 64 66 69 72 68 75 77 77 80 82 82 83 82 89 93 90 75 60 53 53 51 48 46 47 51 54 54 53 53 52 50 47
47 53 48 49 54 58 59 62 64 63 63 65 67 70 72 71 69 80 79 81 83 84 85 89 92 87 84 64 56 52 54 52 49 48 50 54 56 56 56 56 53 50 46 43
55 49 54 57 57 58 61 63 63 65 66 67 68 70 61 70 75 85 83 83 85 88 86 88 87 85 61 53 52 54 53 50 50 53 56 57 58 58 57 55 52 47 43 38
59 55 62 60 62 64 64 65 68 69 62 60 75 76 75 74 80 82 83 81 84 87 91 91 78 58 50 52 53 52 50 52 55 57 58 59 59 57 55 52 49 43 36 28
59 57 65 64 68 65 67 69 66 69 67 77 80 77 78 76 76 79 81 86 87 84 83 67 52 47 51 52 50 50 54 56 58 59 60 58 54 50 49 46 44 36 26 16
62 63 65 68 65 69 70 69 71 71 75 75 75 76 75 74 74 84 86 81 78 68 54 44 46 50 50 49 50 53 55 58 59 58 53 49 46 41 37 37 35 27 18 13
62 67 67 67 69 70 68 67 69 73 69 71 76 70 74 74 82 85 80 68 57 47 43 45 49 49 47 49 52 55 58 57 53 46 42 39 35 35 34 29 25 23 15 9
65 67 68 69 69 70 70 69 62 61 65 72 76 75 78 80 83 73 64 52 41 42 45 49 47 47 48 50 55 57 54 47 42 39 36 34 34 33 29 26 21 13 12 8
67 68 68 69 69 69 71 70 62 66 74 76 73 78 83 75 68 60 52 42 40 43 47 44 45 46 49 54 54 49 42 39 37 35 34 33 32 28 27 23 13 12 9 7
66 67 67 67 69 68 67 66 67 69 71 74 75 73 66 62 58 49 40 40 42 44 41 41 42 46 50 51 45 40 38 35 34 33 33 32 28 26 23 15 14 10 6 7
66 64 62 63 65 66 66 66 70 72 72 69 64 61 59 56 49 39 37 40 41 38 38 38 42 45 46 44 39 37 34 33 32 30 33 28 26 24 19 14 13 7 5 7
66 65 65 66 68 70 71 71 70 69 64 60 59 58 54 47 38 34 36 38 35 35 34 38 40 41 42 39 37 34 31 32 30 30 32 28 25 21 17 15 10 5 6 6
64 63 63 67 69 71 70 69 67 63 62 59 56 52 44 40 31 34 36 32 33 29 32 35 36 38 41 37 36 32 32 34 33 29 27 25 24 20 18 15 9 5 6 6
63 66 68 69 69 69 67 66 66 64 61 56 50 41 38 29 31 33 30 32 27 27 31 33 34 35 38 36 35 33 31 34 29 24 24 24 23 20 18 14 8 6 6 6
65 67 68 69 67 64 63 65 66 64 58 46 37 32 28 28 30 29 30 27 23 26 30 32 33 34 36 37 34 34 31 30 24 23 23 23 24 22 19 14 10 8 7 7
67 67 66 63 64 66 65 61 58 52 43 29 25 25 25 27 27 29 29 22 22 26 29 31 34 36 37 37 36 33 31 28 23 24 22 23 23 22 19 15 11 9 8 7
63 61 62 63 64 59 54 48 42 36 23 20 21 22 24 24 26 28 23 21 23 26 29 32 34 36 38 38 36 33 32 27 22 23 24 21 22 21 19 17 14 11 9 8
60 62 61 57 50 44 39 30 24 18 18 19 20 22 20 23 26 25 22 22 23 26 30 33 34 35 36 37 35 33 30 29 24 22 22 23 21 20 20 18 16 14 11 9
57 53 46 40 36 32 26 23 20 19 17 18 19 19 22 25 25 23 22 24 25 27 30 33 35 35 35 36 35 32 30 28 27 24 23 22 21 21 19 18 16 13 13 11
42 36 33 32 30 29 26 23 20 18 17 18 18 20 22 25 22 21 24 25 27 29 31 33 36 35 35 36 35 33 30 28 27 26 26 24 23 20 19 18 18 16 13 12

GFSNGP_500_spd_003.txt.gz
Wind_Speed
27 30 33 28 31 32 35 33 38 34 35 39 42 41 43 46 52 55 54 56 56 59 60 60 60 65 73 77 78 81 84 86 87 93 89 86 86 81 64 51 46 46 45 45
28 37 40 31 30 37 35 32 38 41 44 45 43 45 46 48 50 53 57 57 59 60 60 64 69 73 77 82 84 86 86 87 88 86 87 87 84 60 47 45 43 49 50 48
39 36 38 26 31 36 37 37 41 45 44 43 41 44 47 47 52 52 54 59 59 63 69 73 73 75 81 86 89 88 87 84 83 88 88 67 51 46 45 46 48 48 47 44
44 41 40 22 35 41 43 44 43 47 44 44 47 49 49 55 58 57 60 62 65 69 72 73 73 74 84 88 89 92 90 83 88 85 75 52 46 44 44 46 46 45 45 46
42 44 45 30 38 42 45 48 46 51 52 55 54 58 55 59 59 60 63 66 72 73 73 70 73 80 89 91 90 91 88 88 85 73 57 48 47 46 45 44 44 45 49 51
39 45 47 38 46 49 53 54 55 58 58 58 61 66 66 68 69 72 72 73 75 63 73 79 85 89 88 90 91 90 86 79 60 51 50 48 46 45 44 46 49 51 52 52
40 45 46 44 50 51 53 57 58 59 59 59 62 65 68 70 72 72 75 77 80 78 80 86 94 96 92 93 87 82 74 56 52 51 50 47 46 47 50 52 53 53 53 53
42 43 43 46 53 55 58 60 60 59 60 61 64 68 70 72 75 75 73 69 77 90 87 88 89 88 95 88 77 65 55 51 51 49 49 49 52 54 55 55 56 56 54 52
43 44 44 48 56 58 60 61 59 62 64 67 69 72 78 75 74 71 71 79 90 90 91 85 85 93 92 71 59 54 51 52 50 50 53 54 55 57 58 58 57 55 52 48
46 42 47 54 54 58 61 62 63 67 68 70 73 77 75 69 71 83 88 86 88 86 85 88 88 90 64 56 50 51 51 49 51 53 56 58 60 59 56 54 51 48 43 37
53 55 57 55 56 60 64 67 67 69 73 75 76 75 73 71 74 81 89 85 82 84 90 93 87 61 52 49 51 51 49 51 54 57 59 57 54 51 48 45 42 37 33 29
60 59 61 63 65 56 66 69 73 74 77 77 78 78 76 77 79 79 79 80 89 91 88 74 53 46 46 51 48 48 50 54 57 56 52 49 46 44 43 41 40 36 33 27
63 64 65 65 65 69 71 73 76 77 78 78 74 75 76 76 78 82 86 84 85 76 63 53 46 43 49 46 46 48 53 54 52 48 45 43 41 41 39 38 36 32 29 18
66 67 69 70 70 72 74 75 76 76 74 72 71 72 74 74 75 78 78 73 67 58 51 43 42 45 44 43 46 50 52 48 44 42 42 40 39 39 37 32 30 28 19 15
68 68 69 72 74 74 76 76 74 73 69 67 70 71 71 72 73 72 66 62 57 50 41 41 42 41 40 43 46 48 46 42 41 39 39 36 39 35 32 31 27 20 18 11
69 72 75 74 74 74 74 74 70 67 68 70 72 71 72 71 67 62 59 54 48 39 38 41 39 37 39 42 43 44 41 40 38 38 35 36 38 34 31 28 24 21 15 6
71 71 71 70 70 69 67 66 69 73 74 74 73 73 70 65 60 57 54 47 37 34 38 36 34 35 38 39 41 41 40 38 38 39 37 35 33 32 30 26 23 19 11 5
69 68 70 69 70 74 74 71 70 71 73 74 73 71 67 62 58 53 46 39 31 35 33 32 30 34 36 36 38 40 38 39 37 38 33 31 32 31 27 24 21 14 8 6
72 72 73 71 68 68 69 71 73 74 75 75 71 69 67 64 55 45 37 28 31 30 31 27 29 32 33 34 36 39 38 38 36 33 29 29 30 30 27 24 19 13 8 7
69 68 65 65 66 69 72 72 73 73 73 72 72 70 63 52 37 30 25 27 28 30 27 24 27 31 33 34 35 37 38 37 34 30 28 29 30 29 27 23 18 13 10 10
63 63 64 66 69 69 70 72 71 70 71 72 67 56 44 33 23 21 23 25 27 29 22 23 27 30 33 35 37 36 37 37 34 29 27 27 28 29 28 25 18 14 11 10
62 63 66 69 70 70 67 67 70 70 66 57 49 36 24 18 16 20 22 23 27 25 21 23 27 30 33 35 37 37 36 36 34 30 26 27 27 27 27 26 20 17 13 10
65 67 67 66 65 65 65 66 62 53 47 37 28 17 14 13 17 19 21 24 26 22 20 24 27 31 33 35 36 37 36 35 33 31 27 26 25 26 25 25 23 18 16 14
64 62 61 63 65 64 60 50 41 36 31 24 18 17 15 17 18 18 22 25 25 22 22 24 27 30 33 35 35 36 36 35 32 30 28 26 26 24 24 23 22 20 17 16
59 61 63 63 60 54 42 34 30 29 27 23 21 18 19 20 19 21 24 25 23 23 23 26 28 32 33 35 36 36 36 35 33 29 27 26 26 25 25 22 21 20 19 17
59 60 58 54 46 35 30 29 27 26 24 23 21 20 20 21 21 22 26 22 21 23 25 28 31 32 32 35 36 36 36 36 34 31 29 27 27 26 25 24 22 20 18 18
52 51 43 35 30 30 32 31 27 25 24 23 21 21 22 22 22 24 23 22 23 25 28 28 28 29 31 33 35 36 36 35 33 31 30 29 28 28 27 25 23 21 20 18

GFSNGP_500_spd_006.txt.gz
Wind_Speed
31 32 32 28 32 36 41 41 42 40 40 40 43 46 48 46 49 53 59 61 62 64 66 66 69 71 73 76 80 79 79 80 82 89 98 100 100 89 76 60 44 40 41 44
34 39 40 33 34 39 39 37 38 42 43 44 45 47 47 47 55 56 59 62 62 64 68 69 71 74 75 78 69 71 77 88 93 102 100 95 88 71 55 43 43 45 46 48
40 38 40 30 30 37 39 38 40 43 45 46 46 48 50 51 55 58 62 65 67 66 69 73 74 76 77 77 75 78 87 91 88 88 97 80 65 52 46 44 44 45 46 47
49 44 41 26 32 40 41 42 41 46 48 50 52 52 52 56 60 63 66 69 71 75 80 79 81 79 80 80 82 92 93 87 88 94 81 63 54 49 47 45 44 44 44 44
48 49 47 32 35 40 43 44 45 47 50 53 55 58 58 61 65 70 73 76 80 83 84 84 84 81 80 87 93 92 92 95 92 74 58 52 51 50 47 46 47 48 50 51
45 46 48 37 41 44 47 49 51 52 55 58 60 62 63 67 72 75 78 80 84 83 79 79 83 82 87 88 94 89 93 89 67 55 52 53 51 49 49 52 53 53 53 54
37 42 42 41 44 46 49 53 55 59 62 64 66 68 69 70 73 80 82 83 82 80 79 82 86 87 89 94 91 87 79 60 53 53 55 52 52 54 55 56 57 57 55 55
40 40 38 41 44 48 51 55 59 62 65 68 68 70 73 77 80 82 85 84 80 79 82 84 85 86 91 90 81 68 56 50 54 54 52 55 57 59 59 58 55 52 50 46
41 42 40 46 49 54 57 60 62 64 67 59 68 71 79 81 83 83 82 76 78 78 81 83 83 81 81 74 64 55 50 54 52 53 55 59 60 58 54 51 49 46 43 39
47 43 47 50 52 57 57 62 67 69 71 67 71 76 81 82 82 79 76 76 76 81 81 80 80 75 69 60 52 48 51 50 51 55 59 58 54 51 49 47 45 41 39 37
52 51 55 58 60 61 66 69 71 70 67 73 75 76 77 79 79 77 76 77 78 76 78 75 70 64 58 51 45 47 48 49 54 56 55 49 47 46 45 45 43 40 36 34
55 58 59 64 67 70 74 76 73 72 73 74 75 76 78 79 76 76 77 76 74 74 72 66 62 56 46 42 44 45 46 50 51 51 47 45 44 41 44 44 41 37 35 27
58 60 64 68 72 76 77 75 73 75 77 77 77 79 79 76 75 76 76 74 73 67 61 58 53 44 38 41 41 41 45 46 48 46 44 43 42 41 41 40 38 33 25 22
63 66 69 72 74 75 74 75 78 77 76 77 76 75 74 75 76 75 73 71 65 59 57 52 44 35 39 38 36 41 41 43 45 44 42 43 43 39 37 35 31 27 26 21
69 71 72 72 72 74 77 76 74 76 76 75 74 75 77 76 74 74 72 67 61 58 52 45 33 36 36 33 36 38 38 41 43 43 42 40 38 36 36 33 29 26 24 13
69 71 72 73 73 74 74 75 76 75 74 74 75 75 74 75 75 73 70 68 65 55 43 32 31 32 29 31 34 35 36 39 42 41 40 37 34 35 35 30 29 25 18 8
71 71 71 72 72 74 74 73 74 74 73 72 74 74 75 74 71 72 72 65 52 36 29 27 27 26 26 30 33 34 35 38 40 40 38 34 33 34 33 31 27 21 14 8
70 72 72 72 73 76 77 74 72 73 73 75 76 75 73 73 74 69 58 44 30 23 24 24 25 22 25 29 32 34 36 37 38 38 36 34 32 33 32 30 26 20 14 10
72 71 73 75 76 74 72 73 73 73 74 74 72 71 74 73 64 54 38 23 18 20 22 23 23 20 24 28 32 35 37 37 37 36 34 32 32 31 31 30 26 20 16 11
71 73 74 72 69 69 70 71 73 72 70 68 70 71 65 58 48 31 17 14 17 19 21 25 21 20 25 29 31 34 36 37 36 34 32 31 30 30 29 29 27 21 17 11
70 69 67 66 67 68 69 69 69 66 66 67 66 55 48 40 24 16 14 16 17 19 23 25 20 21 25 28 32 35 35 36 36 34 31 29 29 29 28 27 27 24 18 14
64 63 64 66 67 65 64 64 66 67 64 57 48 41 32 24 21 18 17 18 18 21 25 24 21 22 25 28 32 34 34 35 35 34 31 28 27 27 28 27 26 24 22 17
61 63 64 64 63 62 63 65 65 61 51 43 38 31 27 26 23 20 21 20 21 24 25 24 23 24 26 30 33 33 34 35 35 34 32 29 27 26 26 27 26 25 22 21
62 62 60 60 62 64 64 60 54 43 38 36 34 29 27 25 23 22 22 23 24 25 26 23 24 25 28 31 32 31 33 35 35 33 31 29 28 26 26 26 25 26 24 21
59 58 59 60 60 59 54 51 41 32 34 33 30 26 26 24 24 23 24 24 24 27 25 24 24 27 28 28 28 30 33 36 34 32 30 29 29 28 26 25 25 25 24 22
56 55 54 53 52 51 49 43 33 32 33 28 27 25 26 25 25 24 23 23 25 24 23 24 27 27 24 25 27 30 33 35 33 30 29 29 29 29 27 26 27 25 23 22
49 49 48 47 44 44 40 32 31 30 29 25 25 25 25 23 23 24 23 22 22 22 24 26 25 23 24 26 28 31 34 35 32 29 29 30 30 30 29 30 30 25 22 21

GFSNGP_500_spd_009.txt.gz
Wind_Speed
31 33 34 32 35 39 42 42 43 39 39 40 41 43 44 44 48 51 54 58 60 63 67 69 70 73 77 80 83 82 78 80 84 82 84 92 95 99 84 72 55 47 45 45
37 39 38 30 32 36 40 40 40 41 41 43 45 47 48 50 53 54 57 61 65 68 71 72 75 79 82 83 82 78 78 82 85 91 95 95 95 76 58 48 46 47 47 46
42 41 40 32 32 36 38 37 40 42 43 45 46 49 50 52 56 60 64 68 70 71 74 79 80 82 82 84 85 84 83 87 90 89 88 81 66 53 49 49 48 46 45 44
47 44 42 28 34 37 37 35 38 40 42 44 47 50 55 57 63 68 71 72 73 74 76 79 87 85 88 88 87 88 88 90 86 79 68 60 51 52 52 49 48 49 51 52
47 48 46 27 31 32 36 35 38 40 42 44 51 56 60 64 69 72 73 72 75 68 74 87 88 89 87 85 86 89 87 81 72 61 54 49 52 50 50 52 54 56 57 58
43 45 42 33 36 38 40 40 44 43 48 54 59 63 67 71 75 77 75 76 80 79 88 92 91 89 88 87 85 83 77 66 57 49 47 50 50 52 54 57 58 57 55 53
39 40 34 35 37 39 43 47 51 53 57 60 64 68 72 74 75 73 72 73 78 86 90 89 86 84 84 82 79 73 64 58 49 47 49 50 52 55 57 56 53 52 50 48
38 35 36 38 41 44 46 49 53 56 59 64 69 73 75 74 72 69 73 81 85 84 82 81 79 80 78 77 70 62 57 47 46 47 48 51 54 56 54 52 50 47 44 44
40 37 40 42 45 48 50 55 57 61 65 69 73 74 73 74 72 73 77 78 78 79 75 76 78 77 74 66 61 58 46 44 45 46 49 51 54 53 50 48 46 43 44 39
44 39 44 46 48 51 54 58 61 66 71 73 74 76 74 74 75 75 77 78 77 77 78 77 75 72 65 59 56 46 41 43 43 46 47 50 51 49 48 47 46 42 38 36
44 43 48 48 52 57 63 63 65 71 74 75 75 76 78 77 78 80 80 79 78 79 78 74 70 62 58 55 48 40 40 40 42 43 46 49 48 47 46 43 41 37 35 29
50 51 53 56 59 63 67 71 74 75 74 75 76 76 78 80 80 81 80 79 80 77 75 71 64 60 56 48 36 37 37 38 40 41 44 46 45 43 42 41 40 36 32 27
55 57 58 61 64 68 72 74 75 74 75 76 77 80 82 81 81 78 78 79 76 74 71 67 65 58 45 34 33 33 33 37 37 38 42 43 43 38 37 40 40 35 31 28
59 60 63 67 70 73 74 73 73 74 76 78 79 78 80 76 76 77 75 74 73 71 70 65 53 40 29 28 28 27 31 34 35 36 40 41 40 36 36 37 35 32 30 20
61 64 68 71 72 73 71 71 73 74 75 75 76 76 75 75 75 75 73 71 72 70 58 45 33 23 23 24 22 25 30 33 34 35 38 39 38 35 35 35 33 29 25 16
65 68 69 69 68 67 71 73 74 74 74 75 75 74 73 75 72 70 71 72 65 55 40 26 17 19 21 19 20 25 29 33 35 35 37 37 37 34 33 33 31 27 21 16
66 66 65 64 67 70 72 73 74 75 75 73 74 73 73 70 68 69 68 61 52 34 19 14 17 18 20 17 20 25 30 34 35 35 36 36 34 33 31 31 29 25 20 15
63 63 66 69 71 71 72 74 76 73 72 74 73 70 67 67 67 62 55 48 31 17 15 17 17 20 19 17 21 26 30 34 34 34 36 36 32 32 30 29 28 24 20 15
65 68 70 71 73 74 76 75 73 72 72 71 68 64 65 64 54 47 40 29 20 15 19 17 19 22 19 18 23 27 31 34 33 33 35 36 32 30 29 28 27 25 21 17
67 69 71 72 73 73 71 71 73 71 68 65 64 63 60 46 40 35 28 25 19 19 21 20 22 23 20 20 23 27 31 33 32 33 35 36 32 28 28 27 27 24 22 18
69 70 72 73 71 69 70 70 68 65 63 63 62 55 44 36 33 30 28 25 21 22 22 22 24 24 23 22 24 28 31 32 31 33 36 36 32 28 26 26 26 25 23 20
68 69 67 66 67 65 65 64 63 62 62 58 53 43 34 33 32 29 28 25 25 24 24 26 26 24 23 24 25 28 30 29 31 34 37 35 31 28 27 26 25 25 24 22
64 63 64 64 63 61 60 60 61 59 54 51 46 36 32 32 30 28 26 25 25 24 26 25 24 22 23 24 26 29 27 28 31 35 37 34 30 28 28 28 26 24 25 23
59 61 61 60 58 58 58 57 53 50 48 44 37 35 34 30 27 27 26 26 25 27 26 25 23 23 24 25 27 25 26 27 32 36 36 33 29 28 28 28 27 25 25 26
59 58 56 55 54 54 51 49 45 45 40 32 32 33 31 28 27 28 27 24 24 25 25 24 23 24 25 25 23 24 26 30 33 36 37 34 30 28 28 29 28 27 28 27
56 54 52 49 47 47 46 45 42 39 31 28 29 30 28 27 26 27 26 24 24 24 22 23 23 24 23 23 23 25 27 31 33 36 37 35 31 29 29 30 30 30 29 25
52 51 46 41 42 43 43 42 40 36 31 30 28 30 29 27 24 23 23 22 23 22 22 23 25 23 22 22 24 27 29 32 34 35 37 36 31 30 29 29 31 31 28 24

GFSNGP_500_spd_012.txt.gz
Wind_Speed
31 32 29 29 31 36 37 37 39 35 33 36 36 37 38 39 43 47 51 55 59 63 68 72 73 74 76 76 81 78 78 97 97 93 92 92 88 83 73 63 54 50 50 50
33 37 33 29 32 35 36 37 38 37 35 33 37 39 42 44 48 52 56 59 64 70 75 78 78 77 77 76 78 84 94 94 93 92 90 87 80 66 60 52 51 52 49 49
41 38 32 30 31 30 28 30 32 34 35 38 40 43 45 48 53 58 61 68 73 76 79 78 76 78 77 80 89 95 92 91 90 87 83 74 63 56 50 51 51 50 52 53
46 42 34 33 32 28 24 24 28 32 33 37 39 45 50 52 57 62 67 72 76 78 77 75 73 76 81 87 89 90 88 86 83 78 68 60 52 48 50 50 52 54 56 57
49 47 37 30 32 28 29 25 29 33 37 40 43 47 52 56 60 65 70 74 76 76 77 78 78 79 81 84 85 85 83 81 73 65 60 49 46 48 49 51 54 57 56 54
49 47 44 39 32 33 33 36 37 38 42 45 49 53 57 63 68 72 74 74 75 78 78 78 80 81 81 82 81 79 77 70 63 61 51 47 46 48 50 53 56 55 53 51
46 43 40 36 38 38 39 42 44 48 51 55 59 62 66 71 73 75 75 77 79 78 79 79 80 81 78 79 77 75 69 62 60 53 46 45 46 48 51 54 55 52 50 48
43 38 38 37 39 43 44 46 48 50 54 58 64 68 71 74 75 77 76 77 78 79 79 80 80 79 78 77 75 70 63 60 55 46 44 44 46 48 52 54 52 48 46 44
42 36 41 42 44 45 50 52 54 56 60 65 70 73 74 74 75 75 77 78 78 80 81 79 79 80 78 74 69 65 64 55 44 42 41 43 44 48 51 52 48 44 43 42
41 40 44 44 45 50 52 56 57 61 65 69 73 74 76 76 76 77 78 81 83 82 81 80 79 77 75 71 69 66 54 42 38 37 39 41 43 47 50 49 43 42 40 38
43 44 46 48 51 53 56 59 62 67 70 73 76 77 77 77 78 80 82 83 83 82 81 79 76 73 72 70 61 49 36 31 33 34 38 39 41 45 48 45 40 40 39 37
47 49 53 55 57 58 59 62 66 71 75 77 77 76 77 78 80 82 83 83 80 77 77 75 74 73 64 51 40 27 25 28 28 33 36 37 40 44 44 41 40 39 38 34
51 55 58 61 61 62 64 68 72 74 76 75 74 77 79 80 81 80 79 78 75 73 73 73 71 61 45 32 20 21 25 23 28 32 35 36 39 42 41 39 37 38 36 29
56 58 61 61 63 66 68 71 73 73 73 75 76 77 79 78 77 76 75 73 71 71 71 66 57 40 25 16 19 22 19 23 28 34 36 36 38 40 39 37 35 36 33 27
57 59 60 62 64 67 69 70 71 72 73 73 75 77 76 74 74 73 71 69 68 67 60 51 33 21 17 18 21 18 19 25 30 34 36 36 37 39 37 36 33 33 31 26
58 60 62 63 65 66 67 70 71 70 72 73 75 75 75 74 72 69 67 65 62 52 45 30 20 19 19 20 21 19 21 26 30 35 36 36 37 39 36 34 32 29 29 25
58 58 60 62 63 65 67 68 70 73 75 76 75 74 72 69 66 64 63 56 46 38 30 21 19 21 21 23 22 20 22 27 30 35 35 35 37 39 36 32 31 28 27 25
57 59 61 62 64 65 67 70 73 74 74 75 73 71 68 65 63 60 53 42 35 29 25 19 21 22 25 24 22 21 24 27 31 34 34 35 37 39 36 32 30 29 25 23
60 62 62 64 66 68 70 71 72 72 72 71 69 66 64 63 59 52 39 35 30 28 25 22 23 23 26 25 23 23 25 28 30 33 33 35 38 38 35 32 30 28 26 23
61 61 63 65 67 68 69 70 71 69 69 67 65 64 62 55 49 40 32 32 29 27 25 24 25 25 28 27 24 23 25 28 30 31 32 35 38 38 33 31 29 29 26 25
61 63 64 65 66 66 66 68 68 66 63 62 62 58 52 48 41 31 30 29 27 26 25 25 25 26 27 28 24 24 25 27 30 29 30 34 38 37 32 30 29 29 28 25
62 63 64 65 65 62 63 64 63 61 59 57 54 49 48 40 33 30 30 27 27 25 24 24 24 25 27 25 23 24 25 28 27 28 31 35 38 37 32 29 28 29 28 26
61 62 63 62 60 60 60 60 57 56 54 51 46 46 37 32 32 30 26 25 26 26 25 25 26 25 25 23 24 25 26 25 26 28 32 35 37 38 34 30 27 27 28 28
60 59 57 58 59 59 56 52 51 49 48 45 43 42 34 30 30 30 28 27 27 27 25 24 24 24 23 24 25 24 24 24 26 29 32 35 38 38 37 31 29 27 28 30
54 54 56 57 57 54 50 47 42 43 43 42 42 39 35 33 31 30 30 28 25 24 24 24 23 24 24 24 24 23 22 24 27 30 33 36 38 39 39 33 29 28 28 30
53 55 55 55 50 47 45 43 41 43 43 40 40 39 36 33 32 30 29 29 27 24 23 22 23 23 25 26 23 22 23 26 28 31 33 35 38 38 40 34 30 28 29 30
53 54 53 49 47 44 42 41 42 43 42 41 39 38 35 32 29 27 27 27 26 24 24 24 24 25 26 25 22 23 25 27 28 32 34 37 37 38 41 33 29 28 29 31

GFSNGP_500_spd_015.txt.gz
Wind_Speed
21 27 32 34 32 33 34 34 35 28 26 27 28 28 31 35 38 42 46 50 55 59 63 69 73 77 79 79 78 77 78 79 82 84 86 87 87 84 76 68 61 54 50 50
23 28 36 34 36 36 33 32 31 30 27 26 28 30 32 37 41 45 50 54 59 63 69 75 79 81 82 79 80 81 82 83 85 85 84 83 80 73 65 61 52 50 51 52
28 34 38 42 36 35 32 33 29 29 30 32 34 39 42 44 48 52 56 60 66 72 77 80 81 81 82 83 83 84 86 85 82 84 82 78 71 64 62 53 50 51 52 53
36 40 43 47 38 33 31 27 29 32 35 37 40 42 49 50 54 59 63 68 73 77 78 78 78 80 82 83 84 85 86 84 83 81 77 70 64 62 55 50 50 52 54 58
40 44 47 39 35 33 30 27 30 34 37 41 44 48 53 56 60 64 68 74 78 80 80 80 80 81 83 85 85 84 82 80 79 76 70 65 63 56 50 48 50 51 56 58
43 48 48 43 38 33 33 33 35 37 40 45 49 53 56 60 65 69 74 78 80 82 82 82 82 83 84 83 81 80 81 78 73 70 68 62 54 47 46 47 48 52 56 55
46 48 46 42 38 36 37 40 42 43 48 53 57 60 63 66 71 76 80 83 83 83 83 83 83 83 82 81 80 78 77 75 72 69 62 49 41 44 45 46 48 53 54 48
46 47 48 43 41 40 39 41 47 49 53 58 62 64 67 71 76 80 81 82 81 82 83 83 83 83 82 80 76 74 74 73 65 54 45 36 41 41 44 45 49 52 50 45
49 46 42 45 44 46 46 48 51 56 60 64 67 70 72 76 79 80 80 80 81 82 84 84 83 83 81 77 75 74 69 58 48 35 29 35 35 39 41 43 48 49 46 44
50 42 43 41 45 47 48 52 55 58 61 63 67 70 73 77 78 79 78 80 83 85 84 84 83 78 77 75 74 65 52 39 27 24 28 30 35 38 39 43 47 46 43 42
53 48 48 44 47 51 54 57 58 60 63 66 69 71 74 76 77 79 80 83 83 83 82 80 77 73 73 69 60 44 30 20 22 23 24 30 35 36 39 42 44 44 41 40
56 51 48 50 53 54 56 59 61 63 66 68 71 74 76 78 78 80 82 82 82 81 77 73 70 69 63 53 36 25 18 22 20 22 27 33 36 37 38 41 41 40 39 38
53 51 51 53 55 57 58 60 63 66 68 70 73 75 76 77 79 80 81 81 78 74 70 67 65 57 48 32 24 21 23 22 20 24 29 34 37 37 39 42 39 37 36 36
51 52 54 56 56 59 62 64 66 67 70 72 74 74 76 77 78 79 78 76 72 68 65 62 52 43 30 24 23 24 26 23 23 27 31 35 38 37 39 41 37 36 35 33
52 53 55 58 60 63 65 65 67 69 71 71 73 75 76 76 76 76 74 71 68 65 60 48 40 32 23 24 24 27 28 25 25 29 32 35 38 37 39 41 36 33 33 32
54 58 59 61 63 64 64 65 67 68 68 71 72 73 74 75 75 73 70 68 66 56 46 37 31 26 24 24 25 29 29 26 26 29 32 35 36 36 39 40 35 32 31 31
59 61 62 62 63 63 64 65 66 68 69 71 72 73 73 72 72 69 67 62 54 48 37 32 29 26 25 26 26 28 29 27 27 29 32 34 35 36 39 40 34 30 30 28
62 61 62 62 61 63 64 66 68 70 71 72 72 72 72 70 67 65 59 53 48 39 33 30 28 27 26 27 27 29 30 28 27 29 30 33 33 34 38 40 34 29 28 28
63 63 61 61 63 64 65 67 69 70 70 70 70 68 67 64 63 57 53 47 39 31 30 29 27 26 26 27 27 28 30 28 27 28 31 31 31 34 37 40 35 29 27 28
63 61 60 61 63 65 66 67 68 67 67 68 67 65 61 59 55 50 45 37 33 31 28 27 26 24 25 26 26 27 29 27 27 28 31 30 31 35 37 39 37 30 27 26
60 60 61 62 64 66 67 67 65 63 64 65 63 59 56 53 47 44 39 35 33 28 25 24 25 26 25 27 26 28 27 27 27 29 29 28 31 35 37 38 38 33 28 27
59 61 62 63 64 64 64 62 62 62 62 60 57 54 52 49 44 40 37 35 33 30 27 26 26 26 26 25 25 25 25 27 28 27 26 28 31 35 37 38 39 36 30 28
60 62 62 63 63 61 60 59 60 60 57 55 52 49 48 46 43 39 35 34 34 30 28 27 25 24 24 25 25 25 25 27 27 25 26 28 32 34 36 38 39 39 32 30
61 61 61 61 60 57 56 57 57 56 53 52 49 46 47 44 41 40 37 34 33 31 29 27 25 24 24 23 23 24 27 27 24 24 27 29 31 33 37 38 39 41 33 30
59 58 57 56 55 56 56 55 54 52 51 49 46 45 46 45 41 38 36 33 31 29 28 28 27 24 24 23 24 26 27 25 24 26 27 28 32 34 36 38 39 42 35 31
56 54 54 55 55 55 55 54 52 50 49 45 44 44 43 41 37 35 34 32 31 30 29 29 28 27 25 25 27 28 27 25 26 27 28 29 32 35 37 40 38 42 36 32
53 53 53 53 53 53 52 50 48 46 44 44 42 41 38 35 33 31 31 31 29 29 30 30 29 28 27 27 29 28 27 27 28 28 29 30 34 36 37 40 39 41 38 33

GFSNGP_500_spd_018.txt.gz
Wind_Speed
16 19 24 29 33 37 36 33 33 28 28 25 26 25 30 30 34 39 44 48 51 56 61 66 72 77 81 84 85 86 88 87 87 88 90 83 85 82 77 73 67 63 58 51
20 23 27 30 36 40 37 33 31 31 24 30 29 29 33 36 40 44 47 52 56 62 67 73 77 82 85 86 88 89 87 90 91 92 89 83 81 75 72 69 65 55 48 47
23 27 28 32 36 40 37 34 33 30 31 33 33 36 42 41 45 50 55 59 64 69 73 78 82 84 85 85 84 85 85 87 89 83 84 75 74 71 71 64 51 44 45 47
30 31 32 35 39 39 37 34 32 32 35 37 39 40 44 49 51 55 60 65 68 72 76 80 83 85 85 83 83 85 84 86 84 83 68 76 75 71 59 47 40 43 46 48
34 37 36 38 40 39 40 30 35 34 35 36 38 41 46 51 56 59 63 67 71 75 79 81 85 88 87 87 86 86 87 84 78 70 66 73 65 59 46 40 41 43 47 48
37 41 41 42 46 46 42 40 39 35 37 39 41 46 49 52 56 60 65 69 74 78 83 86 86 86 87 86 86 84 84 78 73 72 65 53 53 39 40 39 41 43 45 49
40 41 43 44 47 46 47 43 41 40 41 44 47 50 54 58 61 67 71 75 78 82 84 84 85 86 87 87 86 81 76 73 70 63 52 39 31 29 33 36 40 40 44 47
42 43 46 48 49 50 48 45 47 46 47 49 52 55 59 63 68 72 74 77 81 83 82 84 86 87 88 85 81 74 71 67 57 43 29 22 24 25 31 36 37 40 44 43
44 44 46 49 53 53 53 50 49 50 53 55 56 60 64 68 72 74 76 79 81 81 83 84 86 89 87 80 73 69 62 50 35 25 21 24 23 29 34 36 38 41 44 41
48 45 46 48 50 54 53 51 52 54 55 58 62 65 68 71 73 75 78 79 80 82 83 85 88 85 77 71 67 58 45 31 22 25 23 22 27 32 36 36 39 43 41 40
47 47 51 51 55 56 53 52 55 56 58 61 64 67 71 72 74 77 78 80 83 84 85 85 82 76 70 64 53 43 29 23 25 27 24 24 29 33 37 37 39 43 39 38
46 50 51 55 56 55 52 53 54 58 62 64 67 70 71 73 76 78 80 82 82 83 83 81 75 70 61 50 41 30 25 25 27 27 25 27 31 35 37 37 39 42 36 35
47 53 56 57 56 53 53 55 59 62 64 67 69 71 73 74 76 78 79 80 83 83 81 75 68 57 49 38 32 26 26 26 28 28 26 28 32 34 36 36 39 41 33 31
51 53 55 53 52 53 57 60 63 64 66 68 69 71 73 75 77 78 78 80 81 79 74 67 57 51 40 33 29 26 26 27 28 29 28 30 32 34 35 35 39 42 32 29
55 57 54 52 53 57 60 62 63 66 67 68 71 72 74 75 76 76 77 79 77 72 66 58 50 42 36 32 29 27 27 27 27 29 29 30 32 34 34 34 39 41 34 29
56 54 53 54 57 60 62 64 66 67 68 70 70 72 74 75 75 75 77 76 70 65 59 52 45 35 33 31 29 28 27 28 28 29 29 29 31 33 33 34 38 40 34 29
52 54 57 59 61 64 65 66 66 67 67 68 70 72 73 73 73 74 72 67 62 56 53 47 38 32 31 29 29 28 27 27 28 29 29 29 29 32 31 33 37 39 37 29
56 59 61 64 66 66 65 64 64 65 67 68 70 71 71 72 71 69 65 59 55 50 46 42 38 33 30 29 28 26 27 27 27 28 28 28 29 31 29 33 36 38 38 32
64 66 67 66 65 63 61 63 65 67 68 68 69 68 69 69 67 62 58 54 51 46 42 39 35 30 28 27 26 26 27 27 27 27 26 27 30 28 29 33 36 38 38 35
65 67 66 64 62 61 62 64 67 68 68 68 68 67 66 65 61 57 53 51 49 44 40 37 35 31 29 28 28 27 27 26 26 25 26 27 27 26 29 33 35 37 37 37
63 65 62 58 59 62 64 65 66 66 66 65 65 64 63 60 57 54 51 47 47 42 38 35 34 31 28 28 27 27 27 25 25 25 26 26 25 26 29 31 34 37 36 38
60 57 57 60 62 63 63 64 64 64 63 63 64 63 61 59 55 52 49 47 44 41 36 33 31 30 27 26 26 26 26 24 24 25 27 25 25 26 28 31 33 36 36 39
57 60 61 61 62 62 62 63 63 62 62 63 62 61 60 57 53 49 44 45 42 39 35 32 29 28 26 25 25 25 24 23 25 27 26 25 26 26 28 30 32 34 37 38
58 59 60 61 62 62 61 61 61 61 60 60 58 58 56 52 47 46 45 42 39 35 33 32 29 28 27 26 26 27 25 26 26 28 27 26 27 28 29 31 33 34 37 37
59 59 60 61 60 59 58 59 60 61 61 58 55 53 50 48 46 42 39 37 34 31 31 31 30 30 30 30 29 28 27 27 28 28 27 28 29 30 29 31 33 34 37 38
58 58 57 56 56 57 59 60 60 58 57 52 48 46 43 41 39 36 33 31 28 28 30 31 31 31 31 31 30 29 29 29 29 28 28 30 31 31 31 32 34 36 38 38
53 53 53 53 54 56 57 56 53 52 48 47 42 39 39 37 34 31 27 27 29 31 33 34 34 34 33 33 31 30 31 30 30 30 30 32 32 33 32 33 35 38 39 39

GFSNGP_500_spd_021.txt.gz
Wind_Speed
13 15 18 21 23 26 29 32 34 33 33 35 31 25 30 31 33 35 37 42 45 49 54 58 62 68 73 77 80 84 87 89 91 89 89 91 86 82 76 65 65 66 68 49
16 17 20 22 24 27 28 32 33 35 34 35 31 27 28 33 35 36 41 45 49 53 57 62 68 72 76 81 86 89 90 93 90 89 89 84 77 64 53 54 62 71 49 42
19 21 24 26 27 29 32 34 38 38 36 33 31 31 33 33 35 40 44 48 53 57 63 68 73 78 83 86 89 90 90 90 90 88 85 80 72 67 59 54 60 51 37 40
23 25 27 31 32 32 34 37 38 40 40 41 36 38 38 38 42 46 50 54 58 63 69 74 78 81 84 87 88 89 89 91 90 85 77 71 66 55 39 49 56 36 36 42
28 29 31 34 36 35 38 38 39 39 42 42 42 42 43 46 50 52 55 59 64 69 73 76 78 82 86 89 88 88 90 90 87 76 69 64 55 42 32 48 32 35 39 40
32 34 37 40 41 42 42 40 43 41 43 43 41 41 43 46 49 52 58 62 66 70 74 78 82 85 89 88 87 89 90 87 79 70 60 46 34 21 20 23 29 35 37 40
35 38 40 41 45 45 43 44 46 46 46 47 45 44 46 49 52 57 61 66 69 73 78 82 84 86 88 88 89 90 87 77 66 55 42 26 23 22 23 27 32 34 36 41
39 41 42 44 47 46 44 46 47 49 51 50 47 47 49 54 58 61 65 68 72 76 80 83 84 87 86 87 89 86 77 64 50 37 25 27 24 22 26 30 34 35 37 42
41 42 42 48 50 49 48 49 49 53 53 51 48 50 54 59 62 65 68 72 75 78 80 82 85 85 87 89 85 76 62 49 38 27 27 28 25 25 29 33 36 36 38 42
44 45 46 51 51 50 50 51 53 55 53 50 52 55 59 62 65 67 70 74 77 79 81 82 84 85 87 83 72 61 50 40 30 26 27 29 26 27 31 35 37 37 39 42
45 45 49 51 51 53 51 52 55 54 51 52 56 59 62 65 66 69 72 74 76 78 80 81 82 83 82 75 61 51 40 34 27 26 27 27 26 28 31 35 36 36 39 43
45 47 46 49 52 50 52 56 57 53 54 56 59 62 65 66 68 71 73 74 76 78 80 80 82 81 76 64 52 42 34 30 26 26 28 26 26 28 31 34 36 35 38 42
46 46 49 52 52 53 56 57 54 54 56 59 63 66 68 69 70 71 72 74 76 78 79 79 79 76 67 54 44 35 31 28 26 26 26 25 25 27 29 33 34 34 37 40
46 48 50 51 52 55 57 54 54 58 61 64 67 69 70 70 71 72 73 75 77 77 77 76 72 65 57 48 39 33 29 29 26 26 27 27 26 27 28 30 31 32 36 38
48 51 52 53 55 55 55 55 58 63 66 68 70 71 71 70 71 72 75 76 75 75 74 70 63 57 49 44 37 33 30 29 28 26 27 27 27 26 27 30 30 32 36 38
51 53 53 52 54 56 59 62 66 69 71 72 72 70 69 70 72 74 75 75 73 71 67 61 56 51 46 41 36 32 31 28 26 25 27 27 26 25 26 28 28 31 34 38
53 52 51 52 55 58 61 64 67 70 71 71 69 68 69 71 72 73 73 71 69 66 60 55 52 47 43 38 34 30 29 27 26 26 27 27 25 24 26 26 27 30 33 37
49 53 56 59 62 64 65 68 68 69 67 66 65 68 70 72 72 72 70 67 64 61 56 51 48 45 41 37 33 30 29 28 27 27 27 26 23 24 25 24 26 29 32 35
54 56 60 62 63 65 67 67 67 65 64 65 67 69 71 72 71 69 66 64 61 57 51 47 45 42 38 35 32 30 29 29 27 26 25 23 23 24 23 23 26 28 31 34
59 63 64 65 64 66 66 65 62 63 65 67 69 71 72 71 68 66 64 61 58 53 48 44 42 39 35 32 31 29 27 25 25 25 24 22 23 24 22 23 25 28 29 31
63 64 63 63 65 62 59 60 62 64 66 70 72 71 68 65 64 64 61 56 52 48 45 43 40 36 32 28 27 27 26 24 24 23 23 23 24 23 23 24 25 27 27 29
61 62 63 62 58 58 60 62 65 67 68 69 67 66 65 65 63 60 56 53 48 44 42 38 35 33 30 27 26 25 24 23 24 24 24 24 24 23 23 24 26 26 27 28
61 60 58 58 59 60 63 66 66 65 64 64 64 65 63 61 57 52 47 45 43 39 35 32 30 28 29 27 27 28 27 26 25 24 25 25 25 24 24 26 26 26 28 29
55 56 58 61 63 62 62 61 61 60 61 61 61 60 55 52 48 47 43 41 39 35 31 28 26 27 28 28 29 29 29 30 28 27 27 27 26 24 26 27 28 28 29 29
59 61 60 59 58 58 58 56 56 57 59 58 55 50 50 50 50 43 40 39 36 31 25 25 27 29 30 32 32 32 32 31 31 30 29 29 28 26 27 28 29 30 30 31
56 56 55 54 53 53 54 56 56 56 55 54 52 49 48 47 45 41 38 37 35 31 30 31 32 34 35 36 36 36 35 33 33 32 31 30 29 28 29 30 31 32 32 32
51 51 51 50 51 54 56 57 57 56 56 55 52 48 47 45 42 39 37 38 37 35 35 36 37 39 40 40 39 38 38 37 35 34 33 31 30 29 30 31 32 33 33 34

GFSNGP_500_spd_024.txt.gz
Wind_Speed
9 10 12 14 17 21 23 25 26 25 28 26 23 26 28 30 31 32 34 36 39 43 46 50 54 58 64 67 71 75 79 84 89 93 95 96 97 95 90 79 72 64 51 53
14 16 17 19 20 23 25 26 28 30 32 31 32 33 33 33 33 36 37 39 44 47 50 53 58 63 67 70 73 79 84 89 92 93 94 95 94 88 79 69 59 39 40 47
18 21 22 22 24 27 29 30 30 33 34 36 35 34 34 36 38 38 40 43 47 49 52 57 62 66 69 73 78 82 87 89 91 92 93 91 88 76 61 51 41 31 42 47
23 25 26 27 27 30 33 30 32 35 36 40 39 39 40 41 39 40 43 46 49 52 57 60 65 68 71 76 80 84 87 89 90 90 90 87 71 54 41 31 24 27 32 35
27 28 29 30 32 34 34 33 36 38 40 41 41 42 43 45 44 43 46 48 52 57 59 63 67 70 73 78 81 85 88 88 89 90 87 71 51 36 27 27 26 29 32 37
30 33 33 33 35 37 37 36 38 39 41 41 42 45 48 49 47 47 48 52 57 60 62 66 69 72 77 81 83 85 86 87 89 86 71 53 39 28 28 29 30 33 36 37
33 36 36 37 39 41 39 40 43 45 45 45 46 47 50 49 47 48 52 57 60 63 67 70 73 77 80 82 84 85 86 87 85 71 54 43 30 28 30 29 31 35 37 38
36 36 39 40 42 42 42 44 46 47 46 48 49 51 54 51 51 54 58 61 64 68 72 75 76 79 80 82 83 83 85 84 73 57 44 36 28 29 30 30 32 36 39 39
37 38 40 43 44 44 45 48 48 48 48 51 53 55 54 52 55 58 62 66 70 73 76 78 79 79 80 81 81 82 82 76 62 48 38 31 28 30 30 30 33 36 38 38
39 38 41 43 43 46 52 52 50 50 52 53 55 56 54 56 59 63 67 70 74 76 77 77 78 79 80 80 80 81 74 65 52 40 33 29 29 31 30 29 32 35 37 38
42 42 45 44 48 52 53 53 52 53 54 54 57 56 57 60 64 69 72 75 76 76 76 75 77 79 80 80 79 73 65 56 44 36 31 28 29 30 30 29 30 33 35 36
41 42 44 47 50 52 52 51 53 54 54 56 56 57 60 65 69 71 74 75 75 74 75 76 77 77 78 77 72 64 57 48 39 34 31 28 28 29 30 30 30 31 34 35
39 40 42 45 49 50 51 52 53 54 55 56 57 60 64 68 70 72 74 74 74 74 75 77 77 77 76 71 65 57 50 43 36 31 30 28 28 30 32 31 29 30 33 33
40 42 46 49 50 50 51 52 53 54 54 57 60 64 68 69 71 72 73 73 73 74 75 76 76 74 70 65 57 52 44 39 33 30 28 27 27 27 29 28 28 30 32 32
45 46 48 50 52 53 54 54 54 56 59 63 65 67 69 70 72 72 71 72 73 75 76 76 72 68 64 59 53 48 41 36 31 28 26 26 26 27 27 26 26 28 29 31
45 45 46 47 48 48 49 53 57 61 63 65 68 69 71 73 72 70 71 72 74 75 73 70 67 64 59 54 49 44 39 35 29 27 26 26 26 26 26 25 26 26 27 30
46 45 46 50 50 51 55 58 61 64 66 69 69 70 72 70 68 69 72 75 75 71 68 67 64 59 54 49 44 40 37 34 29 28 27 26 25 24 24 24 25 24 26 28
48 50 51 52 53 55 60 62 64 66 68 67 68 69 67 66 69 73 75 72 69 67 66 63 59 54 49 44 41 38 34 32 28 26 24 23 22 22 23 24 23 23 24 26
50 52 54 56 58 60 62 64 65 64 65 67 66 65 67 71 75 74 71 68 66 64 61 57 52 48 44 40 37 35 31 29 27 24 22 22 22 22 22 23 22 22 24 25
55 57 58 60 62 63 64 62 64 67 65 62 64 68 74 74 72 69 65 63 62 58 53 48 45 43 39 35 33 32 29 27 26 24 22 21 21 23 24 23 22 23 23 25
57 59 61 61 60 60 62 65 62 61 62 67 71 72 71 69 66 64 60 54 52 52 48 44 41 38 34 30 29 29 28 27 27 26 25 25 24 25 25 24 23 23 24 25
58 57 56 57 60 62 60 59 60 65 69 68 68 67 65 63 61 57 55 52 49 47 42 40 39 36 30 26 26 27 26 26 27 27 27 27 26 26 26 26 24 24 26 26
53 56 60 61 58 56 60 64 64 64 64 63 62 61 60 60 58 56 51 49 47 43 39 37 37 31 25 25 26 28 28 28 28 28 27 27 28 28 28 29 27 26 26 27
56 56 55 57 61 63 60 61 62 60 59 59 58 58 59 58 56 54 50 47 44 39 36 35 34 32 30 30 31 32 33 33 33 32 31 30 30 30 30 30 29 28 27 28
57 58 57 57 58 59 59 58 56 55 55 56 57 58 58 58 55 52 49 45 42 38 35 35 35 35 35 36 37 38 38 38 37 36 35 33 32 32 31 31 30 29 30 30
54 56 57 57 55 55 54 54 53 54 57 57 56 56 55 55 56 56 47 43 40 37 36 37 37 37 37 38 39 40 40 39 39 38 38 37 35 33 32 32 32 32 32 33
52 51 51 51 52 53 54 55 58 57 57 55 52 53 54 56 59 56 43 41 40 38 36 36 35 37 40 40 39 38 38 38 37 36 37 36 35 35 35 34 34 34 34 34

GFSNGP_500_spd_027.txt.gz
Wind_Speed
13 13 15 15 17 18 20 21 22 23 23 26 27 28 30 31 32 32 34 37 39 40 42 45 49 52 55 59 62 65 69 74 80 86 88 90 91 95 96 96 92 75 56 46
16 17 18 19 21 25 25 26 27 29 28 28 30 32 34 36 37 39 40 43 44 44 45 48 52 53 58 63 66 70 75 80 86 87 89 90 93 93 93 89 71 54 40 34
21 22 24 22 24 28 28 27 30 32 33 32 34 36 37 38 40 41 43 46 49 48 49 52 54 58 63 67 70 75 78 82 85 87 88 90 91 91 88 69 53 40 36 35
26 27 30 25 27 30 32 31 33 35 35 35 37 38 39 42 43 45 47 49 49 49 51 53 58 63 67 71 74 78 82 85 86 86 87 88 90 87 72 54 43 34 35 35
33 32 35 30 30 34 36 35 35 37 37 39 41 42 43 46 46 48 50 52 51 51 53 57 61 66 70 75 78 81 83 85 85 85 87 89 85 78 56 44 36 35 35 37
36 38 38 34 34 37 39 37 38 39 39 42 43 44 45 47 49 50 52 54 51 52 56 60 65 70 74 78 80 82 83 85 86 86 88 84 79 62 47 38 33 34 36 37
38 40 40 36 38 39 40 42 41 41 43 45 46 48 49 50 51 53 56 54 53 56 60 65 69 73 76 79 82 83 84 85 86 86 83 77 66 49 40 34 33 35 36 38
37 39 41 39 40 41 42 43 44 43 44 47 48 50 52 52 54 55 56 55 57 61 66 70 72 76 77 80 81 82 84 86 86 80 75 66 54 41 35 32 33 35 36 38
38 38 40 42 43 43 45 45 44 45 49 51 50 51 54 55 56 58 57 59 62 66 71 73 76 77 79 80 80 82 84 85 77 73 66 57 46 38 34 32 32 34 36 38
39 37 39 43 45 45 46 47 46 48 51 51 52 54 56 57 58 59 60 63 67 71 73 74 76 78 79 79 81 84 83 75 70 65 58 50 42 36 33 31 31 33 35 36
42 40 43 43 44 45 46 46 47 49 50 52 54 56 58 59 59 60 64 67 70 72 74 75 77 77 77 80 83 81 74 70 64 58 51 44 38 34 32 31 31 34 35 35
42 42 44 44 43 44 45 48 49 50 52 54 56 58 58 58 60 64 68 70 72 73 75 75 75 76 80 82 80 73 69 64 59 53 46 40 35 33 31 29 30 31 33 33
41 41 42 42 44 46 48 49 49 51 53 56 57 54 56 61 65 69 70 72 73 74 74 74 75 79 80 78 72 69 65 59 54 48 42 37 33 30 29 29 29 30 31 31
38 40 42 43 46 47 48 48 49 50 52 53 53 57 61 65 68 69 71 71 73 73 72 75 78 78 76 73 70 65 59 54 49 43 38 35 31 28 28 28 28 30 30 30
42 44 46 47 48 48 49 49 50 52 53 54 57 61 65 68 68 69 70 72 72 72 74 77 76 74 72 69 64 58 53 49 44 40 35 33 31 29 28 27 27 28 29 29
47 46 46 46 47 49 51 54 56 57 57 57 61 67 68 68 69 69 71 70 70 73 75 75 73 69 65 62 59 53 49 44 40 36 33 32 29 28 27 25 25 25 27 28
47 45 44 45 46 47 49 54 55 56 59 64 66 67 68 69 69 69 68 70 73 74 73 71 66 60 58 59 55 49 45 40 36 33 32 30 27 25 24 23 24 25 26 25
40 43 46 48 49 52 54 55 57 61 63 65 66 67 67 68 66 65 69 71 72 71 68 65 58 57 57 55 49 43 39 35 32 30 29 28 26 25 24 24 24 25 26 24
46 49 52 50 53 55 56 58 59 61 62 62 63 65 65 63 65 68 70 71 68 66 62 59 57 56 54 48 43 39 35 31 31 30 28 28 27 26 25 24 25 26 26 25
54 55 54 55 57 58 58 59 59 59 60 63 64 62 64 67 68 69 66 65 65 63 59 57 55 54 49 42 39 35 31 29 29 28 27 28 29 28 28 26 26 28 28 26
55 55 56 56 57 58 58 58 59 61 64 61 63 66 67 67 67 65 62 62 62 61 59 54 53 50 43 38 35 31 28 28 28 28 28 29 29 30 29 29 28 29 29 29
56 57 57 57 57 57 58 60 62 61 63 65 65 66 65 63 61 62 62 63 60 59 57 53 50 44 38 34 32 31 30 31 32 33 33 33 32 31 32 31 30 30 31 31
55 54 54 54 56 59 61 61 62 63 63 64 63 61 61 60 59 61 61 60 59 58 56 53 45 40 35 33 32 32 33 35 36 36 37 37 36 35 34 33 32 30 31 32
53 56 59 61 61 60 62 60 62 62 61 60 60 60 59 60 60 61 60 58 56 56 57 52 41 37 34 33 34 34 34 35 37 38 38 38 38 37 36 36 35 34 33 32
56 57 58 55 56 58 59 60 59 58 58 56 56 59 61 60 60 57 55 54 54 54 57 47 37 34 33 33 33 33 36 37 38 37 36 37 37 36 36 37 36 36 33 32
52 55 57 59 60 60 59 58 57 56 57 59 60 59 58 60 57 54 53 52 52 53 53 40 34 33 32 32 32 34 36 37 37 37 37 38 37 37 37 36 36 35 35 34
56 56 56 56 57 57 56 57 59 60 60 60 57 58 58 55 54 53 52 51 50 50 46 37 33 33 33 33 34 36 38 39 39 39 38 37 37 36 37 36 35 35 34 36

GFSNGP_500_spd_033.txt.gz
Wind_Speed
18 20 21 20 20 18 18 20 22 22 25 29 32 32 33 34 36 36 37 38 40 42 44 47 49 51 52 53 56 58 59 59 61 65 70 75 79 82 84 87 89 93 95 88
21 22 22 21 20 19 21 24 27 30 27 35 36 37 37 38 39 40 41 42 43 45 47 49 51 52 53 55 58 59 60 61 64 69 74 78 80 82 85 88 91 94 88 71
22 24 26 26 19 24 28 30 32 34 34 38 40 41 41 42 43 44 44 45 47 49 51 53 53 54 56 58 59 61 62 64 68 73 76 78 81 84 86 90 92 86 71 61
24 26 30 24 25 29 34 35 38 39 41 44 46 45 44 44 45 45 47 49 49 51 54 54 54 56 58 59 61 62 64 68 72 75 76 79 82 85 88 90 83 70 61 53
26 28 30 31 32 34 39 40 42 44 47 48 48 48 47 48 48 49 51 51 51 54 54 55 56 57 58 60 61 63 68 72 74 75 77 80 83 87 88 81 72 63 54 47
26 30 33 33 34 37 41 43 43 45 47 48 49 49 49 49 50 51 53 54 54 56 55 56 57 59 59 60 63 68 71 73 74 77 79 81 85 86 78 72 66 57 48 42
27 30 32 33 35 37 40 44 46 46 47 48 47 49 49 50 52 52 53 53 54 56 56 57 58 59 61 63 67 71 73 73 77 79 79 83 84 77 70 68 62 51 44 37
29 32 36 37 38 41 43 44 46 46 45 46 47 49 51 51 51 51 52 54 56 58 58 58 59 62 63 67 71 73 73 76 79 78 81 82 75 68 67 64 54 45 39 34
32 33 37 41 43 45 44 44 45 46 47 48 49 50 51 50 49 51 54 56 57 58 58 59 62 64 67 71 72 74 76 79 77 80 81 77 68 65 65 59 49 41 36 31
38 36 41 44 45 44 45 45 45 46 47 48 49 50 50 51 53 55 56 57 57 57 59 62 63 68 71 72 74 76 78 78 80 81 77 69 63 63 61 52 43 36 32 28
42 41 43 41 41 42 43 44 44 45 46 47 48 50 52 54 56 56 57 57 58 62 63 63 68 72 74 74 77 77 78 79 79 76 70 63 61 60 54 44 37 33 30 26
41 39 39 38 39 40 41 43 44 45 47 48 51 52 53 54 54 56 56 58 61 63 65 68 71 75 76 79 78 78 78 77 76 71 64 59 58 54 47 38 33 31 28 25
39 39 40 40 41 42 43 45 46 48 50 51 51 51 52 54 58 56 57 61 63 67 69 72 75 75 77 78 78 77 75 74 70 65 59 57 53 47 40 35 31 28 25 24
39 40 40 42 43 45 46 48 49 49 49 49 50 51 54 55 58 61 62 62 65 67 70 74 78 78 78 78 76 75 73 70 65 60 56 53 47 41 35 31 28 28 24 21
40 42 44 45 45 45 45 46 47 47 48 49 52 55 58 60 61 58 60 65 65 71 78 76 76 77 76 76 74 72 68 65 60 56 53 47 42 36 31 29 26 26 24 23
42 43 43 43 45 47 48 49 51 53 54 55 57 58 60 59 58 59 62 65 71 74 72 75 77 75 74 71 68 66 64 61 56 52 48 41 37 30 28 27 25 25 25 23
42 42 44 47 47 48 50 51 53 56 58 59 60 60 56 54 61 65 66 70 70 73 77 76 73 72 70 68 64 63 61 56 53 50 44 37 33 28 26 26 25 26 26 26
41 43 46 48 50 51 53 55 57 58 58 58 57 55 53 57 63 69 72 72 76 75 73 72 68 65 66 64 63 60 58 54 52 48 41 34 31 29 28 27 27 27 27 27
46 49 51 53 55 56 57 58 57 57 56 51 54 57 59 63 67 70 73 72 71 72 69 66 62 61 62 63 60 58 57 53 51 48 39 33 31 30 31 31 31 31 31 30
53 55 58 59 60 60 58 58 54 51 49 53 57 62 66 70 71 71 71 68 65 66 64 61 60 61 62 60 59 59 55 52 49 48 38 33 32 32 32 32 32 32 33 33
59 60 60 59 58 56 55 53 53 54 55 56 58 60 62 63 63 63 65 65 61 61 60 60 60 60 58 59 59 55 51 50 48 46 37 33 33 33 33 32 32 32 32 30
61 59 58 56 54 52 51 50 51 53 54 55 55 57 60 62 65 65 64 64 61 61 62 62 62 60 59 57 54 50 48 47 46 41 34 32 33 33 32 31 30 30 30 31
55 55 53 51 52 54 52 51 50 51 53 58 62 65 68 68 68 67 65 63 63 63 62 61 59 57 55 53 50 48 46 45 42 38 34 33 33 33 33 32 30 30 31 31
53 54 53 50 50 51 49 49 52 57 61 64 67 69 70 69 65 66 65 63 61 61 60 58 56 54 52 50 48 47 45 43 39 36 35 34 35 35 35 35 34 34 34 33
50 49 49 50 48 49 50 54 59 62 64 67 69 70 69 69 69 65 66 65 64 62 60 57 55 53 53 51 49 47 45 42 39 37 36 36 35 35 36 36 37 37 37 37
48 48 49 50 51 52 57 60 65 68 72 73 72 72 69 67 64 63 61 59 57 55 54 53 53 53 53 51 49 47 44 41 39 38 37 37 36 35 35 36 37 39 40 40
47 50 51 53 55 59 64 67 71 75 79 78 73 69 65 63 63 62 60 58 57 56 55 55 54 52 51 49 46 45 42 40 39 37 37 37 35 36 37 38 39 40 41 41

GFSNGP_500_spd_036.txt.gz
Wind_Speed
17 18 18 19 22 22 21 21 22 20 23 25 33 33 32 34 37 39 42 44 45 46 47 49 50 52 53 53 55 56 58 60 61 63 64 65 69 73 76 78 81 81 85 89
18 18 19 21 22 22 23 23 25 28 27 31 36 39 40 41 43 45 47 47 48 48 50 52 53 54 54 55 56 58 60 61 62 62 64 68 72 75 76 79 80 83 87 89
18 20 23 23 21 24 26 27 30 33 33 37 40 45 46 47 49 49 49 49 49 50 52 54 55 55 55 56 57 59 60 61 61 64 68 71 75 75 79 80 82 86 87 79
17 22 25 20 23 26 30 32 36 38 41 43 46 49 50 51 51 49 48 49 49 51 54 56 55 55 55 57 58 59 60 61 65 68 71 75 76 77 80 81 85 86 79 70
21 21 24 25 26 28 33 35 39 42 45 47 48 49 49 49 49 49 49 50 51 53 55 54 53 53 56 58 59 59 61 64 70 71 74 76 77 80 82 83 84 80 71 67
20 23 24 24 26 29 33 36 38 40 42 44 46 47 49 48 49 50 50 52 53 53 53 52 53 56 58 59 60 61 63 71 74 75 77 77 78 81 83 83 80 72 67 64
21 23 24 26 28 30 33 38 40 42 43 44 45 47 48 49 49 49 50 50 50 50 51 53 56 57 58 59 60 63 71 75 76 77 78 77 78 84 84 82 75 67 63 57
23 26 30 31 35 37 39 41 42 44 45 45 44 44 45 47 48 47 46 47 48 51 53 55 56 56 57 58 61 69 72 75 79 80 80 79 81 83 80 76 68 63 58 49
27 30 35 39 41 42 43 43 43 43 44 45 45 45 46 46 46 46 47 51 53 55 54 54 56 58 58 59 69 72 74 76 79 81 80 80 83 80 77 70 62 58 52 42
34 36 40 42 43 43 43 42 42 42 43 44 45 45 45 46 48 51 52 54 55 56 57 58 59 61 64 66 70 72 75 79 81 82 82 81 79 75 72 62 57 53 45 38
37 39 41 41 41 42 42 43 43 43 43 43 44 46 48 50 52 53 54 54 55 57 59 60 62 60 66 72 77 77 77 82 84 83 82 79 75 70 63 56 51 46 40 35
40 39 40 39 39 39 40 40 42 43 44 45 47 49 49 50 52 52 53 55 57 60 61 64 63 62 68 74 76 73 79 82 82 83 78 72 69 64 56 51 46 40 36 32
39 38 38 38 40 40 41 42 43 45 45 46 46 47 49 49 51 53 56 58 60 59 59 65 66 75 77 74 67 71 76 81 82 77 70 65 62 57 52 46 40 36 32 29
37 38 40 41 42 42 44 45 44 44 45 47 48 48 50 53 56 59 60 59 62 60 64 69 76 73 66 65 71 77 81 81 76 69 64 59 55 52 48 40 36 32 29 26
38 40 41 42 43 45 45 45 45 47 48 49 51 54 56 57 58 60 57 54 59 65 70 72 67 66 67 74 80 81 80 72 66 62 59 56 52 48 44 36 32 29 27 26
40 42 43 44 45 45 45 46 47 49 51 54 56 57 58 60 59 55 56 59 61 64 70 70 70 74 80 81 80 75 68 63 61 60 55 53 51 46 41 34 30 28 26 25
42 43 44 45 44 44 46 48 51 53 55 57 58 60 60 60 60 58 61 65 66 68 72 73 77 80 76 73 71 68 62 59 57 56 55 53 49 45 40 33 31 30 30 29
42 42 41 43 46 49 50 53 55 57 60 60 58 57 57 56 54 59 62 65 70 73 76 77 73 71 69 68 64 61 59 59 57 56 55 51 48 44 39 32 31 30 31 32
41 44 46 49 50 52 56 59 60 59 56 54 54 52 52 55 58 61 65 67 67 67 67 69 69 67 65 63 62 61 61 58 56 55 52 49 47 44 38 32 31 31 32 32
46 49 52 54 57 57 57 56 55 54 52 52 51 52 53 54 55 54 56 60 65 69 70 68 67 65 64 63 61 59 58 56 53 52 49 47 46 43 36 31 31 31 32 32
52 54 54 54 53 53 54 54 54 53 55 53 50 49 50 52 56 59 63 66 69 71 69 67 65 64 64 61 60 58 56 53 51 48 46 44 43 40 34 31 31 31 31 31
51 49 49 49 51 53 53 55 52 50 50 50 52 53 55 58 62 65 71 76 74 71 68 66 63 61 61 60 58 57 54 49 48 46 44 42 40 37 34 32 32 32 33 32
45 47 50 52 53 55 54 52 52 52 53 55 55 58 61 65 70 73 76 78 74 68 64 60 58 57 56 53 51 49 47 47 46 45 43 41 39 36 34 33 34 35 35 35
48 51 53 54 53 52 52 53 53 54 56 57 60 64 68 69 74 82 84 76 69 67 65 63 60 58 56 54 52 51 49 48 46 44 42 39 37 36 35 35 35 36 36 36
53 54 54 53 52 51 53 53 55 56 59 62 65 69 73 78 82 85 79 71 69 66 62 60 57 55 54 53 51 49 47 45 43 41 40 38 36 35 37 36 35 35 34 35
53 52 52 51 51 52 54 56 58 60 63 65 69 74 78 83 87 80 73 69 64 60 58 55 52 50 48 47 46 45 44 42 41 40 39 37 36 35 36 35 34 33 33 36
51 50 49 50 51 54 57 60 62 65 68 72 75 80 85 85 78 73 67 62 60 59 56 52 50 48 47 47 47 47 46 44 41 40 39 38 37 36 35 35 35 34 36 39

GFSNGP_500_spd_039.txt.gz
Wind_Speed
24 25 22 21 21 21 22 20 24 16 25 21 30 36 34 35 36 39 42 45 47 49 51 52 52 53 53 54 56 57 57 57 59 60 62 63 64 66 69 74 77 78 78 80
23 23 23 23 21 21 22 22 24 25 30 28 34 36 38 42 44 46 49 50 51 51 52 53 53 53 55 56 57 56 56 57 59 62 62 63 65 68 73 79 80 82 81 82
23 21 23 20 17 20 22 23 27 31 30 37 39 40 42 46 49 50 52 53 52 52 53 53 54 54 55 56 55 54 56 58 60 60 62 64 67 72 77 82 82 82 81 84
20 20 22 17 19 21 24 26 31 35 35 40 44 44 48 50 51 51 51 51 51 51 51 52 54 55 54 54 54 55 58 59 60 60 64 68 71 76 80 82 81 84 85 86
20 20 20 19 20 23 26 29 36 35 38 42 45 47 49 50 49 51 50 50 50 51 52 53 53 53 52 53 55 57 58 59 61 63 68 73 74 80 83 80 83 87 88 87
17 20 21 21 22 25 28 31 33 34 38 41 44 46 49 50 50 50 49 49 49 50 51 51 50 52 54 54 56 56 56 62 64 67 72 79 83 79 78 81 85 89 91 88
17 20 20 20 22 24 28 32 34 37 40 43 46 47 47 48 48 47 48 47 47 48 48 50 52 53 54 54 56 57 58 60 65 75 80 84 81 82 78 78 83 88 91 81
17 20 23 24 27 30 33 35 38 41 44 45 46 46 46 46 46 46 47 46 46 48 50 52 53 55 56 59 59 62 65 67 66 75 82 78 77 77 79 82 84 85 82 69
21 26 28 31 33 35 37 40 42 44 44 46 46 47 48 47 47 46 48 49 50 51 52 52 52 53 58 60 61 66 72 76 79 78 75 72 69 77 80 78 80 81 71 60
27 31 34 36 38 40 42 43 44 45 44 44 45 46 48 46 48 49 51 51 51 51 52 54 56 59 62 61 64 66 75 77 68 72 71 71 78 78 74 75 76 69 62 55
32 36 37 41 41 43 44 45 44 43 44 44 45 46 47 48 49 49 50 51 52 54 56 59 60 62 63 66 68 74 67 66 71 70 72 76 75 72 74 69 66 61 55 50
37 38 40 43 45 43 43 42 43 45 46 45 46 48 48 48 49 51 51 53 55 58 60 62 64 62 64 69 69 69 71 76 78 75 78 77 72 70 65 62 58 54 50 45
41 42 44 43 42 42 42 44 45 45 46 47 48 48 48 49 50 52 55 58 60 61 62 59 63 66 66 68 71 74 78 81 78 77 71 71 70 64 58 56 52 50 47 40
41 41 44 41 45 45 45 45 46 47 48 48 46 46 48 51 55 57 60 62 62 62 60 60 64 70 72 74 76 73 73 76 75 70 70 70 64 59 56 54 53 47 43 36
40 41 43 44 45 45 46 47 48 48 47 46 47 50 54 56 58 60 61 61 61 60 61 63 67 72 77 79 79 77 75 73 72 72 68 63 58 56 55 53 50 45 42 36
41 42 43 44 45 47 48 48 47 46 48 51 54 56 59 62 63 60 58 58 58 59 62 64 69 73 73 74 74 75 75 74 72 68 62 59 57 55 53 50 47 44 41 35
42 43 44 46 47 47 46 46 48 51 54 56 59 61 60 59 58 56 57 56 58 62 65 67 67 68 67 67 71 74 73 69 65 63 60 56 54 51 50 49 46 43 41 35
42 43 44 44 44 46 49 51 54 56 58 59 57 56 56 58 59 59 58 59 60 59 59 57 58 62 68 74 74 71 68 65 64 62 59 56 54 52 49 46 44 42 40 34
42 42 43 45 48 50 53 56 56 55 53 54 55 57 59 60 60 59 57 54 56 55 56 62 65 70 76 77 70 66 63 60 59 57 57 54 52 49 47 45 43 41 38 32
42 44 47 49 52 55 54 50 50 51 54 58 59 60 59 56 54 54 56 56 61 64 64 68 73 76 83 72 65 61 58 57 56 54 51 49 48 45 44 42 41 39 35 31
46 48 51 53 51 47 47 50 53 56 58 59 59 57 54 55 55 57 58 61 66 69 72 76 79 84 78 67 63 62 60 57 54 52 49 47 45 43 42 41 39 37 33 31
51 53 50 45 45 48 51 54 56 58 59 59 57 57 57 58 59 61 66 68 69 73 77 80 85 80 70 66 62 58 56 54 53 51 49 48 46 44 42 40 38 36 33 32
51 46 45 47 50 53 55 57 58 60 60 58 59 59 60 62 63 66 66 72 77 80 84 87 79 73 67 61 57 54 52 50 50 49 47 46 44 43 41 39 37 36 34 32
44 46 49 52 54 56 58 59 60 60 59 59 60 61 63 65 67 71 75 79 82 87 84 78 70 64 59 56 54 51 50 47 45 44 43 41 40 39 38 37 36 35 34 33
48 50 53 55 57 59 60 61 60 59 59 59 61 64 67 69 72 75 80 84 85 79 73 66 62 59 55 52 49 47 47 46 45 45 42 41 40 39 37 36 35 35 33 35
52 55 57 59 59 60 60 59 58 58 59 61 63 66 70 74 78 82 85 81 76 69 64 63 60 56 53 51 49 47 46 45 45 44 44 41 40 39 38 37 36 36 35 37
56 58 59 59 59 58 57 57 57 59 60 63 67 72 75 79 83 82 77 72 67 65 63 60 58 56 52 49 47 46 45 45 45 44 44 43 41 39 39 38 37 36 36 37

GFSNGP_500_spd_042.txt.gz
Wind_Speed
22 22 26 21 24 19 22 21 22 17 23 21 18 27 37 39 36 37 38 44 44 49 52 56 55 54 52 53 51 53 55 56 57 55 56 58 60 61 64 67 69 72 78 80
26 25 27 25 25 22 21 21 23 22 25 24 28 40 36 40 39 44 46 50 52 49 51 53 54 53 51 53 52 54 55 55 53 55 57 60 60 62 65 69 72 78 82 82
25 26 26 23 20 22 20 22 23 25 26 31 33 40 40 36 42 46 47 49 53 53 52 52 55 54 53 54 54 53 53 53 56 57 60 60 63 64 70 81 83 82 82 81
22 25 25 20 20 20 20 22 26 29 31 31 36 38 41 44 46 47 50 50 52 53 54 54 56 56 53 54 53 53 54 56 57 58 60 64 65 68 72 73 78 87 83 79
24 24 22 21 22 19 21 26 27 27 29 34 36 39 43 45 46 49 51 53 54 53 52 51 52 52 52 53 54 57 57 57 56 59 62 66 70 76 75 80 81 78 77 79
21 21 22 24 20 22 23 28 27 27 31 33 36 39 43 46 49 52 52 51 50 49 50 50 50 51 52 56 57 56 57 55 61 67 71 69 76 79 80 79 74 75 76 83
20 21 19 22 17 21 23 25 27 29 33 36 40 44 46 48 49 49 48 51 47 46 48 49 50 52 52 53 54 55 58 59 58 68 74 84 81 77 70 73 77 80 78 76
19 19 20 18 20 21 24 28 31 34 37 40 43 45 48 48 47 47 51 50 48 49 49 50 50 51 53 54 55 60 62 60 61 75 79 80 82 75 73 77 77 76 73 72
17 20 20 22 25 27 29 32 36 38 41 44 46 47 48 50 46 46 51 50 50 50 50 51 52 53 56 58 59 62 65 63 66 75 83 84 77 76 77 75 70 68 68 63
20 25 28 27 31 31 34 38 40 43 46 45 46 47 48 49 51 51 50 51 50 50 51 53 55 58 60 62 64 66 67 72 72 78 78 75 77 75 79 78 73 64 59 54
26 31 33 35 35 35 40 43 45 47 48 45 46 48 49 50 50 50 51 51 51 52 54 58 62 64 65 66 67 65 69 73 75 75 76 79 79 74 69 65 61 59 56 53
33 33 35 40 40 43 44 46 47 46 46 47 48 48 49 50 50 50 50 51 53 57 60 63 67 69 67 65 64 65 69 73 76 79 77 73 72 71 70 65 60 56 53 53
38 38 41 42 43 45 48 47 46 47 47 47 48 49 51 52 51 51 52 56 59 62 65 67 65 64 67 67 66 67 71 75 77 73 71 72 73 72 67 59 57 54 50 48
40 44 45 46 46 47 46 46 46 46 47 48 49 50 50 49 51 55 58 61 63 63 62 62 62 64 65 65 68 71 72 70 68 66 70 75 75 71 65 61 55 50 48 45
42 45 48 48 47 46 46 46 46 47 48 49 50 49 51 54 57 60 61 61 59 60 62 63 65 65 65 66 67 67 66 65 67 71 75 76 69 64 61 57 53 49 46 44
46 47 46 45 46 46 46 47 48 49 49 49 51 54 57 60 61 59 58 59 61 64 65 66 65 65 65 64 62 63 66 69 74 76 81 71 64 59 56 54 51 48 46 43
46 45 45 45 46 46 46 48 49 49 50 53 56 58 60 58 55 58 60 62 65 66 68 67 63 59 60 65 67 70 73 75 76 82 73 64 60 57 55 53 51 46 43 42
45 45 46 46 46 46 48 48 49 52 55 57 59 57 54 55 59 61 64 65 66 66 65 62 60 61 64 66 69 73 77 78 81 76 65 61 60 57 54 51 48 45 40 39
45 45 45 45 46 47 49 51 54 56 58 58 54 53 57 60 62 64 66 66 65 64 61 62 63 66 67 70 75 78 82 83 74 67 63 59 57 54 51 49 46 43 40 38
43 44 44 45 48 50 53 54 56 58 54 52 54 58 61 63 65 67 65 65 65 63 65 66 68 70 72 76 80 85 80 74 67 61 56 55 55 50 48 47 45 43 41 39
43 44 46 48 51 53 56 58 54 50 52 55 59 61 63 65 66 64 64 64 64 66 68 70 72 75 80 82 85 77 71 63 58 54 52 51 52 49 47 45 43 42 40 38
44 47 50 53 55 57 54 50 50 53 56 59 62 64 65 66 66 65 65 66 67 69 71 74 78 81 85 80 75 68 62 59 56 52 49 48 46 45 43 42 40 39 38 36
52 54 56 57 54 50 49 52 55 58 61 63 64 66 66 66 65 65 65 67 69 72 77 81 83 84 78 72 66 62 60 56 52 49 47 46 44 43 41 39 38 36 35 34
57 57 53 49 49 51 54 57 60 62 64 66 67 67 66 65 65 66 68 71 75 79 83 85 81 75 69 65 63 61 58 54 50 49 47 47 45 43 42 39 38 37 36 35
52 49 49 51 53 56 59 62 64 66 67 67 67 66 65 65 66 69 72 76 81 83 83 78 73 70 67 64 61 58 54 49 46 45 44 43 43 42 41 40 38 37 36 35
50 51 54 56 59 61 63 64 66 67 66 65 64 63 64 67 70 74 78 81 82 79 76 73 69 65 60 57 53 49 49 49 49 49 47 46 45 44 43 42 41 39 38 36
54 56 59 61 63 64 64 65 65 64 62 60 62 66 68 71 75 78 80 79 76 73 69 64 57 54 51 48 50 52 52 51 49 47 47 46 46 45 45 43 42 42 39 37

GFSNGP_500_spd_045.txt.gz
Wind_Speed
22 22 22 26 22 17 21 17 20 13 18 16 20 27 30 34 34 33 37 40 43 46 45 40 39 43 45 48 51 54 53 55 57 56 56 55 58 59 59 59 61 68 70 73
25 24 24 26 22 20 24 22 21 19 18 17 25 30 33 35 36 38 41 44 46 50 49 49 41 42 45 54 55 53 55 55 56 54 55 58 60 60 59 63 64 66 72 76
27 26 27 28 19 24 22 22 22 24 25 26 28 31 34 35 35 36 41 44 47 50 49 51 52 40 51 53 52 52 53 53 53 55 57 57 59 58 67 72 79 81 81 84
24 25 28 21 24 20 21 22 24 25 25 25 26 29 32 37 40 42 43 45 46 48 50 51 50 49 51 50 50 52 53 54 55 55 56 57 60 62 66 68 81 85 84 78
25 25 25 23 21 17 22 23 23 23 24 27 28 32 34 36 38 42 44 48 50 51 49 48 48 47 47 50 52 54 55 55 56 56 56 62 69 69 68 74 75 83 80 75
24 25 24 22 22 19 23 26 22 24 26 28 30 32 34 38 41 44 47 48 47 46 45 45 46 49 50 51 52 53 54 56 57 60 58 61 70 72 73 76 81 78 83 77
24 23 23 20 18 21 25 25 22 24 25 28 31 34 37 41 45 47 47 47 47 46 46 48 48 49 50 51 53 54 55 58 62 64 64 68 73 76 79 78 80 78 80 78
21 19 20 19 19 20 20 21 24 27 29 32 35 38 43 44 45 44 45 48 49 50 50 51 51 52 52 53 55 57 60 63 64 65 68 68 72 74 76 77 78 77 69 66
21 19 19 19 18 17 20 25 28 30 33 36 39 42 45 46 47 46 45 46 47 49 50 52 53 53 54 56 60 64 66 68 68 69 70 71 71 73 77 77 71 68 66 65
19 19 20 20 22 23 26 30 32 35 38 41 43 45 46 46 47 48 49 49 50 51 51 51 52 54 57 61 64 65 65 66 69 71 71 71 73 75 71 67 66 70 72 67
22 23 24 26 28 29 32 34 37 40 42 44 45 45 46 47 48 49 51 52 53 53 51 52 56 60 62 63 62 64 65 67 69 71 72 72 69 65 66 70 71 73 74 68
25 27 30 33 35 36 39 41 43 44 45 46 47 47 48 48 49 51 52 52 51 52 55 59 61 61 61 61 62 65 67 69 70 69 67 64 64 64 69 73 72 74 68 62
31 32 33 36 38 41 44 45 46 46 47 47 47 48 48 50 51 52 51 51 54 57 60 60 60 60 60 63 66 69 70 70 68 66 66 64 64 67 69 67 72 67 60 56
36 37 37 39 42 44 46 47 48 48 47 48 48 49 50 51 52 51 53 56 59 60 59 59 60 62 65 68 69 70 70 67 64 63 65 66 69 72 74 75 71 59 53 52
39 41 43 44 45 47 47 47 47 47 48 49 50 50 51 51 52 54 57 60 59 58 60 61 63 66 69 70 71 70 70 67 65 66 67 71 75 77 80 75 67 58 52 49
42 44 45 48 49 49 48 48 48 49 49 49 49 51 52 53 56 59 60 59 58 60 62 64 68 70 71 72 72 70 67 67 69 72 74 76 79 81 77 68 63 58 54 49
44 45 48 50 49 49 48 49 50 50 50 50 51 52 55 58 60 61 58 58 60 63 65 68 71 73 73 73 72 70 69 70 71 74 78 81 83 75 69 65 60 54 51 49
47 49 49 49 48 48 49 49 50 49 50 52 54 56 58 61 59 56 57 61 64 67 69 71 73 73 72 72 72 72 73 74 77 80 83 81 73 66 60 58 54 49 45 46
48 48 48 48 48 49 48 48 48 50 52 54 57 60 60 57 56 58 61 65 67 69 71 73 74 72 73 73 73 74 77 80 81 84 78 72 63 57 56 55 53 49 45 43
45 47 48 48 47 47 46 48 50 53 56 59 60 59 56 56 59 63 66 69 71 72 75 76 75 74 72 73 76 80 83 85 82 74 68 62 57 52 50 49 49 46 43 41
47 46 46 47 47 47 46 50 55 58 60 59 56 55 57 61 64 67 69 71 73 74 74 74 73 72 74 78 81 84 84 78 74 68 63 59 55 51 47 45 45 43 41 39
46 47 46 45 46 48 53 58 61 60 56 54 55 58 61 65 67 70 73 74 74 73 72 72 73 76 79 83 84 80 78 73 68 63 59 55 52 49 47 46 43 41 40 38
40 42 46 49 52 57 62 62 57 54 54 56 59 63 66 68 69 71 73 71 70 70 71 73 77 82 83 80 78 75 68 59 55 51 49 46 44 43 42 42 42 41 40 38
45 49 51 55 59 61 58 54 53 55 58 61 64 67 68 69 70 70 68 68 68 71 75 79 82 78 78 75 68 56 51 48 48 50 50 49 48 46 45 44 42 40 39 38
52 56 59 60 56 52 53 55 57 60 63 65 67 70 70 69 66 66 66 66 71 75 81 79 77 74 71 61 53 50 51 53 53 53 53 51 48 46 45 44 43 42 41 39
57 56 53 52 53 55 57 60 62 64 66 68 69 67 65 64 64 65 68 72 76 79 75 75 71 68 57 53 49 50 53 55 56 57 54 49 45 42 40 40 40 41 41 40
50 51 52 55 57 59 62 65 67 67 67 66 64 62 61 62 65 67 71 75 74 74 72 67 65 55 51 48 47 50 53 56 58 56 51 45 40 35 33 32 32 34 35 36

GFSNGP_500_spd_048.txt.gz
Wind_Speed
21 20 23 24 26 23 25 24 24 19 20 19 24 30 29 29 31 27 26 28 31 32 35 36 36 41 42 40 41 45 45 49 55 48 56 55 57 59 60 61 61 62 66 70
24 23 25 27 28 26 22 23 26 26 23 21 22 28 28 28 29 30 32 34 36 38 38 40 41 43 42 43 41 44 45 53 51 50 56 57 59 59 58 60 62 65 74 76
26 25 27 30 26 30 30 30 28 27 26 25 24 25 25 27 28 31 34 37 39 42 45 45 46 39 41 36 41 48 50 49 51 54 57 58 58 58 59 64 67 67 73 80
27 27 32 29 30 30 28 27 26 26 24 24 23 25 26 28 31 34 36 38 40 42 44 47 48 48 47 48 49 47 49 53 54 55 56 58 59 63 67 71 70 73 76 80
30 30 31 28 30 26 24 26 25 24 23 22 24 26 29 31 33 35 36 39 41 44 46 48 50 49 47 48 50 50 52 52 54 56 57 60 62 64 70 73 75 79 80 79
31 30 31 24 28 27 24 27 23 22 22 24 27 30 31 33 34 37 39 41 44 47 48 46 44 46 48 48 49 50 51 52 54 57 62 64 65 68 71 72 76 78 77 76
31 31 30 24 25 27 25 21 19 22 25 27 30 31 32 34 36 39 42 45 47 46 46 46 48 48 48 48 49 51 52 54 57 59 65 66 66 68 71 74 77 77 75 68
31 30 29 23 24 22 19 21 21 24 26 28 30 32 34 37 39 42 44 46 47 48 49 50 50 50 51 51 50 52 55 59 62 62 63 66 68 70 72 74 75 71 67 63
29 28 24 22 20 19 17 20 23 26 28 30 33 35 37 41 43 45 45 46 47 47 49 50 50 51 51 50 52 57 60 61 61 62 65 68 70 72 74 74 73 68 64 62
29 27 25 22 18 18 21 24 26 28 31 33 36 38 41 43 45 46 47 47 48 49 50 50 51 51 51 54 58 60 61 62 63 65 68 71 73 74 73 70 68 67 65 66
26 24 22 22 23 24 26 28 30 33 35 37 39 42 44 46 47 47 48 49 50 50 51 51 51 53 56 59 60 61 62 63 66 69 71 73 74 73 70 67 68 67 69 71
25 25 25 26 28 29 30 33 35 37 39 41 43 45 47 47 48 48 50 51 51 52 52 53 55 58 60 59 59 61 64 67 70 72 74 75 74 71 68 67 68 71 74 76
27 28 29 30 32 34 36 38 40 41 42 44 47 48 48 49 49 50 52 52 52 53 54 56 59 60 59 60 62 65 68 71 73 74 74 74 72 71 70 66 69 72 76 78
30 31 32 34 36 38 40 42 43 44 46 48 49 49 50 50 52 52 51 52 54 54 57 59 61 60 61 64 67 70 72 75 77 78 80 79 77 74 73 73 74 75 77 77
33 34 35 37 40 43 44 45 46 47 49 49 50 51 52 53 52 52 53 54 56 58 60 61 61 61 64 67 71 74 76 77 79 80 79 76 74 74 75 77 80 80 77 70
37 38 39 41 44 45 46 47 49 49 50 51 51 53 53 52 52 53 55 57 60 62 61 61 62 65 68 71 74 76 78 80 81 80 78 76 77 79 80 82 80 76 68 61
41 42 43 45 46 47 49 51 51 51 51 52 53 53 51 51 53 55 58 61 62 61 60 62 65 69 73 76 79 81 82 81 81 78 77 79 82 84 83 79 70 65 58 54
44 45 46 47 48 51 52 51 51 51 52 53 51 50 51 52 56 60 63 62 61 61 63 67 70 74 77 79 81 83 83 81 78 79 81 83 83 81 77 69 62 58 53 50
45 46 48 49 50 50 50 50 52 52 51 50 50 50 52 57 63 63 61 60 61 64 67 70 73 76 79 81 82 81 78 77 80 83 81 79 77 70 61 55 52 49 47 45
47 48 49 48 48 49 51 52 51 51 51 52 52 54 60 65 64 61 60 62 65 68 71 74 78 80 81 81 78 76 77 82 79 78 75 68 56 52 50 48 46 46 46 45
44 46 47 48 50 51 51 52 51 53 53 53 58 62 66 66 62 61 64 66 68 72 75 77 78 79 77 74 75 79 80 77 76 73 61 53 52 53 52 49 45 42 42 43
44 46 48 50 51 51 49 49 52 54 58 62 64 66 65 61 62 64 67 69 72 74 76 77 75 73 72 74 79 77 77 73 70 61 53 53 53 52 52 52 49 46 44 43
48 50 49 47 46 47 49 52 56 61 65 66 64 62 61 63 65 67 70 72 73 74 73 70 69 70 75 78 75 75 71 67 59 53 52 53 53 55 56 53 49 46 45 44
43 42 42 45 47 51 55 60 63 65 63 60 60 61 63 65 67 70 72 73 71 67 67 67 69 74 75 73 72 69 66 58 53 51 52 54 57 60 59 54 47 43 41 41
43 45 48 52 55 59 63 63 60 57 57 60 62 64 67 69 71 71 69 66 64 64 65 69 73 72 70 70 66 65 59 54 51 51 53 56 59 59 56 51 44 38 35 34
50 53 57 60 61 59 56 55 56 59 61 63 66 68 70 70 67 64 63 62 62 65 70 72 70 69 69 68 65 61 56 53 51 51 53 57 58 54 49 44 39 34 30 27
57 57 55 54 53 54 56 58 60 62 65 67 68 67 64 61 60 60 60 63 67 71 71 69 70 72 71 67 62 58 54 52 51 51 53 55 53 47 41 37 35 33 30 26